{"data":{"norad_id":69771,"epoch":"2026-09-20T05:18:27.467136Z","epoch_age_seconds":49566,"freshness":"FRESH","line1":"1 69771U 26151J   26263.22115124 -.00002544  00000+0 -30474-3 0  9999","line2":"2 69771  51.8986 230.4104 0000835  36.2438 323.8580 14.79941311 12131","mean_motion":14.79941311,"eccentricity":8.35e-5,"inclination_deg":51.8986,"raan_deg":230.4104,"arg_perigee_deg":36.2438,"mean_anomaly_deg":323.858,"bstar":-0.00030474,"rev_number":1213,"period_min":97.301155748331,"perigee_km":628.92425505638,"apogee_km":630.0945320041,"semimajor_km":7007.6463935302,"source":"CELESTRAK","updated_at":"2026-09-20T09:00:25.089983Z"}}